Weather in Molebka

Russia / Perm Krai     57°14′14″N   57°56′11″E
temp.,
°C
wind,
m/s
gust,
m/s
humid.,
%
clouds,
%
prec.,
mm/h
press.,
hPa
HPBL,
m
4 august, wed
wed423:00+19se228170 0.0 101212
02:00+17se11845 0.0 101211
05:00+17se22810 0.0 101215
08:00+22se13641 0.0 1012114
11:00+28s354351 0.0 1011626
14:00+30sw354156 0.0 10111105
17:00+30wsw373958 0.0 10101636
20:00+25ssw226897 0.0 101017
5 august, thu
thu523:00+20ssw2380100 0.0 101149
02:00+17ssw248061 0.1 101163
05:00+17se1178100 0.1 101011
08:00+20sse0075100 0.1 101091
11:00+26wsw124995 0.1 1009732
14:00+28wnw324680 0.0 10091301
17:00+24wnw5567100 0.5 1009669
20:00+18nw499511 3.2 1010382
6 august, fri
fri623:00+15nw499990 3.6 1010433
02:00+14wnw379999 0.0 1011341
05:00+14wnw389863 0.0 1011397
08:00+16nw389141 0.0 1011594
11:00+19nw467197 0.1 1012947
14:00+22nnw68449 0.0 10131730
17:00+20nnw585594 0.0 10141105
20:00+17nw27685 0.0 1015311
7 august, sat
sat723:00+12nw22830 0.0 101618
02:00+11wnw1188100 0.0 101614
05:00+10wnw1291100 0.0 101728
08:00+14nw257229 0.0 1017273
11:00+18nw47515 0.0 10171376
14:00+20nw584353 0.0 10171630
17:00+20nw594757 0.0 10171668
20:00+16nnw37635 0.0 1018286
8 august, sun
sun823:00+11wnw11804 0.0 101911
02:00+9wnw11885 0.0 101911
05:00+8wnw11890 0.0 102012
08:00+12nw37670 0.0 1021357
11:00+16nw47490 0.0 10201211
14:00+19nw57420 0.0 10191455
17:00+19nw46425 0.0 10191597
20:00+15nw22695 0.0 101921